Data for 09/10/2017

Time Sea-Level Adjusted Pressure Absolute Pressure Temperature Relative Humidity Dew Point   
(mb) (inHg) (mb) (inHg) (C) (F) (%) (C) (F)
00:05 1021 30.15 851 25.13 19.4 66.9 46 7.6 45.7
00:10 1021 30.15 851 25.13 19.5 67.2 46 7.8 46
00:15 1022 30.18 851 25.13 19.5 67.1 47 7.9 46.2
00:20 1022 30.18 851 25.13 19.4 67 46 7.7 45.9
00:25 1021 30.15 851 25.13 19.4 66.9 46 7.6 45.7
00:30 1021 30.15 851 25.13 19.4 66.9 47 7.8 46.1
00:35 1021 30.15 851 25.13 19.4 66.8 47 7.8 46
00:40 1021 30.15 851 25.13 19.3 66.7 47 7.8 46.1
00:45 1021 30.15 851 25.13 19.2 66.5 47 7.8 46.1
00:50 1021 30.15 851 25.13 19.1 66.4 47 7.8 46
00:55 1021 30.15 850 25.1 19.1 66.3 47 7.8 46
01:00 1021 30.15 850 25.1 19.2 66.6 46 7.6 45.7
01:05 1021 30.15 850 25.1 18.9 66.1 50 8.4 47.1
01:10 1021 30.15 850 25.1 18.3 65 51 8.1 46.6
01:15 1021 30.15 851 25.13 18.1 64.5 52 8.2 46.7
01:20 1021 30.15 851 25.13 17.8 64.1 54 8.6 47.4
01:25 1022 30.18 851 25.13 17.1 62.7 56 8.3 47
01:30 1021 30.15 851 25.13 17 62.6 56 8.2 46.7
01:35 1021 30.15 851 25.13 17.1 62.8 55 8 46.4
01:40 1021 30.15 851 25.13 17.2 63 55 8.3 47
01:45 1021 30.15 851 25.13 17 62.5 57 8.4 47.1
01:50 1021 30.15 851 25.13 16.7 62 57 8.3 46.9
01:55 1021 30.15 851 25.13 16.5 61.7 57 8 46.4
02:00 1022 30.18 851 25.13 16.8 62.2 55 7.8 46
02:05 1022 30.18 851 25.13 17.2 62.9 54 8 46.4
02:10 1022 30.18 851 25.13 17.3 63.1 54 8 46.4
02:15 1022 30.18 851 25.13 17.2 63 55 8.2 46.7
02:20 1022 30.18 851 25.13 16.9 62.4 57 8.5 47.3
02:25 1022 30.18 851 25.13 16.5 61.7 57 8.1 46.6
02:30 1021 30.15 851 25.13 16.8 62.3 55 7.8 46
02:35 1022 30.18 851 25.13 17.1 62.7 54 7.9 46.2
02:40 1022 30.18 851 25.13 17.1 62.8 55 8.1 46.6
02:45 1022 30.18 851 25.13 16.6 61.8 58 8.2 46.8
02:50 1022 30.18 851 25.13 16.1 61.1 58 8 46.5
02:55 1022 30.18 851 25.13 16 60.8 59 8.1 46.6
03:00 1022 30.18 851 25.13 15.7 60.2 62 8.4 47.1
03:05 1022 30.18 851 25.13 15.2 59.4 62 8.1 46.5
03:10 1022 30.18 851 25.13 15.5 60 60 7.9 46.3
03:15 1022 30.18 851 25.13 15.7 60.2 61 8.2 46.7
03:20 1022 30.18 851 25.13 15.5 59.9 61 8.1 46.6
03:25 1022 30.18 851 25.13 15.4 59.8 62 8.1 46.7
03:30 1022 30.18 851 25.13 15.3 59.5 61 7.9 46.2
03:35 1022 30.18 851 25.13 15.3 59.5 62 8.1 46.6
03:40 1022 30.18 851 25.13 14.9 58.8 64 8.2 46.7
03:45 1022 30.18 851 25.13 14.6 58.3 63 7.8 46
03:50 1022 30.18 851 25.13 14.9 58.8 63 7.9 46.2
03:55 1022 30.18 851 25.13 14.8 58.6 64 8 46.4
04:00 1022 30.18 851 25.13 14.9 58.8 62 7.8 46
04:05 1022 30.18 851 25.13 15.2 59.4 61 7.7 45.9
04:10 1022 30.18 851 25.13 15.3 59.6 61 8 46.3
04:15 1022 30.18 851 25.13 15.3 59.5 61 7.9 46.2
04:20 1022 30.18 851 25.13 15.2 59.4 62 8 46.5
04:25 1022 30.18 851 25.13 14.7 58.5 65 8.2 46.7
04:30 1022 30.18 851 25.13 14.2 57.5 66 8 46.4
04:35 1022 30.18 851 25.13 14 57.3 66 7.8 46
04:40 1022 30.18 851 25.13 14 57.1 67 7.9 46.2
04:45 1022 30.18 851 25.13 13.7 56.7 68 7.9 46.2
04:50 1022 30.18 851 25.13 13.6 56.4 68 7.7 45.9
04:55 1022 30.18 851 25.13 13.7 56.6 67 7.6 45.7
05:00 1022 30.18 851 25.13 13.8 56.9 66 7.7 45.9
05:05 1022 30.18 851 25.13 14 57.2 65 7.6 45.7
05:10 1022 30.18 851 25.13 14.3 57.7 64 7.6 45.7
05:15 1022 30.18 851 25.13 14.2 57.6 65 7.7 45.9
05:20 1022 30.18 851 25.13 14.3 57.7 63 7.5 45.4
05:25 1022 30.18 851 25.13 14.4 57.9 63 7.5 45.4
05:30 1022 30.18 851 25.13 14.5 58 63 7.6 45.8
05:35 1022 30.18 851 25.13 14.5 58 63 7.7 45.8
05:40 1022 30.18 851 25.13 14.4 57.8 64 7.6 45.8
05:45 1022 30.18 852 25.16 14.4 58 63 7.6 45.6
05:50 1022 30.18 852 25.16 14.6 58.3 62 7.5 45.5
05:55 1022 30.18 852 25.16 14.9 58.7 61 7.5 45.4
06:00 1023 30.21 852 25.16 14.9 58.8 62 7.6 45.8
06:05 1023 30.21 852 25.16 14.7 58.5 61 7.5 45.4
06:10 1023 30.21 852 25.16 14.9 58.7 61 7.4 45.3
06:15 1023 30.21 852 25.16 14.9 58.9 61 7.6 45.8
06:20 1023 30.21 852 25.16 14.7 58.5 63 7.9 46.2
06:25 1023 30.21 852 25.16 14.2 57.6 65 7.8 46.1
06:30 1023 30.21 852 25.16 14.2 57.5 64 7.4 45.4
06:35 1023 30.21 852 25.16 14 57.1 66 7.7 45.8
06:40 1023 30.21 852 25.16 13.6 56.5 67 7.6 45.7
06:45 1023 30.21 852 25.16 13.6 56.4 67 7.6 45.6
06:50 1023 30.21 852 25.16 13.5 56.2 68 7.8 46
06:55 1023 30.21 852 25.16 13.2 55.8 67 7.3 45.2
07:00 1023 30.21 852 25.16 13.6 56.5 65 7.3 45.1
07:05 1023 30.21 853 25.19 13.8 56.8 66 7.6 45.8
07:10 1023 30.21 853 25.19 13.4 56.1 68 7.8 46
07:15 1023 30.21 853 25.19 12.9 55.3 70 7.6 45.7
07:20 1023 30.21 853 25.19 13 55.5 69 7.5 45.5
07:25 1024 30.24 853 25.19 13 55.4 69 7.4 45.4
07:30 1024 30.24 853 25.19 13.2 55.8 67 7.4 45.3
07:35 1024 30.24 853 25.19 13.3 55.9 68 7.5 45.5
07:40 1024 30.24 853 25.19 13.4 56.2 66 7.3 45.1
07:45 1024 30.24 853 25.19 13.8 56.8 65 7.5 45.5
07:50 1024 30.24 853 25.19 13.8 56.9 66 7.6 45.8
07:55 1024 30.24 853 25.19 13.9 56.9 65 7.5 45.5
08:00 1024 30.24 853 25.19 14.1 57.3 64 7.4 45.3
08:05 1024 30.24 853 25.19 14.5 58.1 62 7.3 45.1
08:10 1024 30.24 853 25.19 15.3 59.5 59 7.5 45.6
08:15 1024 30.24 853 25.19 15.7 60.3 65 9.3 48.7
08:20 1024 30.24 853 25.19 16.1 61 59 8.2 46.7
08:25 1024 30.24 853 25.19 16.1 61.1 59 8.3 46.9
08:30 1024 30.24 853 25.19 16 60.9 59 8.2 46.8
08:35 1024 30.24 854 25.22 16.1 61 59 8.3 46.9
08:40 1024 30.24 854 25.22 16.5 61.8 57 8.2 46.7
08:45 1025 30.27 854 25.22 17.1 62.8 56 8.4 47.1
08:50 1024 30.24 854 25.22 17.7 63.8 54 8.4 47.1
08:55 1025 30.27 854 25.22 18.2 64.8 51 8.2 46.7
09:00 1025 30.27 854 25.22 18.3 65 54 8.8 47.9
09:05 1024 30.24 854 25.22 18.4 65.1 52 8.5 47.2
09:10 1025 30.27 854 25.22 18.6 65.6 51 8.4 47.1
09:15 1025 30.27 854 25.22 19.3 66.7 49 8.3 47
09:20 1025 30.27 854 25.22 19.9 67.9 47 8.6 47.4
09:25 1025 30.27 854 25.22 20.1 68.1 48 8.9 48
09:30 1025 30.27 854 25.22 20.1 68.1 47 8.6 47.5
09:35 1025 30.27 854 25.22 20.6 69.1 45 8.5 47.4
09:40 1025 30.27 854 25.22 21.4 70.6 42 8.2 46.7
09:45 1025 30.27 854 25.22 21.8 71.3 41 8 46.4
09:50 1025 30.27 854 25.22 21.9 71.4 40 8 46.3
09:55 1025 30.27 854 25.22 22.1 71.7 40 8 46.5
10:00 1025 30.27 854 25.22 22.1 71.7 40 7.9 46.2
10:05 1025 30.27 854 25.22 22.1 71.8 40 7.9 46.3
10:10 1025 30.27 854 25.22 22.2 72 40 8 46.5
10:15 1025 30.27 854 25.22 21.9 71.5 42 8.5 47.2
10:20 1025 30.27 854 25.22 22.1 71.9 41 8.6 47.5
10:25 1025 30.27 854 25.22 22.4 72.3 39 8.1 46.6
10:30 1025 30.27 854 25.22 22.4 72.4 39 8 46.4
10:35 1025 30.27 854 25.22 22.4 72.3 41 8.5 47.4
10:40 1025 30.27 854 25.22 22.5 72.6 40 8.3 46.9
10:45 1025 30.27 854 25.22 22.8 73.1 39 8.2 46.7
10:50 1025 30.27 854 25.22 22.9 73.3 37 7.6 45.7
10:55 1025 30.27 854 25.22 23.1 73.7 36 7.5 45.5
11:00 1025 30.27 854 25.22 23.6 74.6 35 7.6 45.6
11:05 1025 30.27 854 25.22 24.1 75.5 34 7.3 45.2
11:10 1025 30.27 854 25.22 24.4 75.9 33 7.1 44.9
11:15 1025 30.27 854 25.22 24 75.3 34 7.4 45.3
11:20 1025 30.27 854 25.22 23.8 74.8 33 7 44.6
11:25 1025 30.27 854 25.22 23.7 74.7 35 7.5 45.6
11:30 1025 30.27 854 25.22 23.6 74.4 33 6.8 44.2
11:35 1025 30.27 854 25.22 24.2 75.5 34 7.6 45.6
11:40 1025 30.27 854 25.22 23.9 75 33 7 44.6
11:45 1025 30.27 854 25.22 23.8 74.8 35 7.8 46
11:50 1025 30.27 854 25.22 24 75.2 33 7.1 44.8
11:55 1025 30.27 854 25.22 24.5 76.1 33 7.4 45.3
12:00 1025 30.27 854 25.22 24.8 76.7 32 7.4 45.4
12:05 1025 30.27 854 25.22 24.7 76.5 33 7.5 45.5
12:10 1025 30.27 854 25.22 24.2 75.6 32 6.8 44.3
12:15 1024 30.24 854 25.22 25.4 77.6 30 6.7 44.1
12:20 1024 30.24 854 25.22 25.3 77.6 31 7.2 45
12:25 1024 30.24 854 25.22 25.1 77.2 30 6.8 44.2
12:30 1024 30.24 854 25.22 24.9 76.7 31 6.9 44.5
12:35 1024 30.24 853 25.19 25.8 78.5 30 7.1 44.7
12:40 1024 30.24 853 25.19 25.8 78.5 30 7.2 45
12:45 1024 30.24 853 25.19 25.5 77.9 30 6.9 44.4
12:50 1024 30.24 853 25.19 25.4 77.7 30 6.7 44.1
12:55 1024 30.24 853 25.19 26 78.8 29 7 44.6
13:00 1024 30.24 853 25.19 26.3 79.3 30 7.6 45.7
13:05 1024 30.24 853 25.19 25.1 77.2 31 7 44.6
13:10 1024 30.24 853 25.19 26.1 79 29 6.8 44.2
13:15 1024 30.24 853 25.19 26.5 79.8 29 7.1 44.8
13:20 1024 30.24 853 25.19 25.5 77.8 32 7.7 45.9
13:25 1024 30.24 853 25.19 25.5 77.9 30 6.7 44.1
13:30 1024 30.24 853 25.19 25.9 78.7 30 7.5 45.5
13:35 1024 30.24 853 25.19 26 78.7 31 7.7 45.8
13:40 1024 30.24 853 25.19 25.5 77.9 30 7 44.6
13:45 1024 30.24 853 25.19 25.4 77.7 31 7.3 45.1
13:50 1024 30.24 853 25.19 26.4 79.5 29 7.1 44.7
13:55 1023 30.21 853 25.19 27 80.6 27 6.9 44.4
14:00 1023 30.21 853 25.19 27.6 81.7 26 6.9 44.4
14:05 1023 30.21 853 25.19 27.7 81.9 26 7 44.6
14:10 1023 30.21 853 25.19 27.4 81.4 28 7.8 46.1
14:15 1023 30.21 853 25.19 27.4 81.3 28 7.4 45.3
14:20 1023 30.21 852 25.16 27.2 81 28 7.2 45
14:25 1023 30.21 852 25.16 27.4 81.3 27 7 44.7
14:30 1023 30.21 852 25.16 27.4 81.3 26 6.3 43.3
14:35 1023 30.21 852 25.16 27.9 82.2 25 6.4 43.4
14:40 1023 30.21 852 25.16 27.9 82.2 26 7.2 44.9
14:45 1023 30.21 852 25.16 27.3 81.2 27 7 44.6
14:50 1023 30.21 852 25.16 27.8 82 26 6.7 44
14:55 1023 30.21 852 25.16 27.9 82.2 26 6.9 44.4
15:00 1023 30.21 852 25.16 26.9 80.4 27 6.6 43.8
15:05 1023 30.21 852 25.16 27.5 81.5 27 6.9 44.3
15:10 1023 30.21 852 25.16 28.1 82.6 25 6.4 43.5
15:15 1023 30.21 852 25.16 28.2 82.7 25 6.7 44.1
15:20 1023 30.21 852 25.16 28.3 83 25 6.5 43.6
15:25 1023 30.21 852 25.16 28.2 82.7 25 6.7 44
15:30 1023 30.21 852 25.16 27.6 81.7 26 6.4 43.6
15:35 1023 30.21 852 25.16 27.3 81.1 27 6.8 44.3
15:40 1023 30.21 852 25.16 27.3 81.2 26 6.5 43.7
15:45 1023 30.21 852 25.16 27.8 82.1 26 6.9 44.4
15:50 1023 30.21 852 25.16 28 82.4 25 6.5 43.6
15:55 1023 30.21 852 25.16 28 82.5 25 6.4 43.6
16:00 1023 30.21 852 25.16 27.9 82.1 25 6.6 43.8
16:05 1023 30.21 852 25.16 27.8 82 25 6.1 43
16:10 1023 30.21 852 25.16 28.2 82.7 25 6.4 43.5
16:15 1023 30.21 852 25.16 27.5 81.5 26 6.4 43.6
16:20 1023 30.21 852 25.16 27.6 81.6 26 6.8 44.2
16:25 1023 30.21 852 25.16 27.9 82.3 24 6 42.8
16:30 1023 30.21 852 25.16 28 82.4 25 6.4 43.5
16:35 1023 30.21 852 25.16 28 82.3 25 6.3 43.4
16:40 1023 30.21 852 25.16 28 82.4 24 5.8 42.4
16:45 1023 30.21 852 25.16 27.9 82.3 24 6 42.8
16:50 1023 30.21 852 25.16 27.6 81.7 24 5.8 42.4
16:55 1023 30.21 852 25.16 27.8 82 24 5.5 41.9
17:00 1023 30.21 852 25.16 27.6 81.6 25 6.1 43
17:05 1023 30.21 852 25.16 26.9 80.4 26 6 42.8
17:10 1023 30.21 852 25.16 26.7 80 26 5.8 42.4
17:15 1023 30.21 852 25.16 26.7 80 25 5.3 41.5
17:20 1023 30.21 852 25.16 26.7 80.1 25 5.5 41.8
17:25 1023 30.21 852 25.16 26.4 79.5 26 5.4 41.8
17:30 1023 30.21 852 25.16 26.5 79.8 25 5.4 41.8
17:35 1023 30.21 852 25.16 26.9 80.5 25 5.5 42
17:40 1023 30.21 852 25.16 26.9 80.4 26 5.8 42.5
17:45 1023 30.21 852 25.16 26.7 80.1 25 5.3 41.5
17:50 1023 30.21 852 25.16 26.6 79.9 26 5.5 41.9
17:55 1023 30.21 852 25.16 26.9 80.5 25 5.4 41.7
18:00 1023 30.21 852 25.16 26.7 80.1 26 5.9 42.7
18:05 1023 30.21 852 25.16 26.6 79.9 24 4.9 40.8
18:10 1023 30.21 852 25.16 26.6 79.8 26 5.5 41.9
18:15 1023 30.21 852 25.16 26.3 79.3 26 5.4 41.6
18:20 1023 30.21 852 25.16 26.1 78.9 26 5.6 42
18:25 1023 30.21 852 25.16 26 78.8 26 5 41
18:30 1023 30.21 852 25.16 26 78.8 26 5.3 41.5
18:35 1023 30.21 852 25.16 26 78.8 27 6.1 42.9
18:40 1023 30.21 852 25.16 26.1 79 26 5.5 41.9
18:45 1023 30.21 852 25.16 26.2 79.2 26 5.5 42
18:50 1023 30.21 852 25.16 26.1 78.9 26 5.4 41.8
18:55 1023 30.21 852 25.16 26 78.7 27 5.8 42.4
19:00 1023 30.21 852 25.16 25.8 78.5 28 6 42.7
19:05 1023 30.21 852 25.16 25.7 78.3 27 5.5 41.9
19:10 1023 30.21 852 25.16 25.6 78 30 6.9 44.4
19:15 1023 30.21 852 25.16 25.5 77.8 29 6.3 43.3
19:20 1023 30.21 852 25.16 25.4 77.7 28 5.8 42.5
19:25 1023 30.21 852 25.16 25.4 77.7 30 6.7 44
19:30 1023 30.21 852 25.16 25.3 77.5 28 5.8 42.5
19:35 1023 30.21 853 25.19 25.2 77.3 28 5.8 42.5
19:40 1023 30.21 853 25.19 25 77.1 30 6.3 43.3
19:45 1023 30.21 853 25.19 24.3 75.8 36 8.5 47.2
19:50 1023 30.21 853 25.19 23.4 74.2 38 8.4 47.2
19:55 1024 30.24 853 25.19 23 73.4 39 8.5 47.2
20:00 1024 30.24 853 25.19 22.5 72.6 39 8 46.4
20:05 1024 30.24 853 25.19 22.3 72.2 39 7.7 45.9
20:10 1024 30.24 853 25.19 22.2 72 38 7.5 45.4
20:15 1024 30.24 853 25.19 22.3 72.1 39 7.7 45.9
20:20 1024 30.24 853 25.19 21.9 71.5 39 7.6 45.7
20:25 1024 30.24 853 25.19 21.5 70.7 39 7.3 45.2
20:30 1024 30.24 853 25.19 21.3 70.4 39 7 44.6
20:35 1024 30.24 853 25.19 21.4 70.6 39 7 44.6
20:40 1024 30.24 853 25.19 21.4 70.6 39 7.2 44.9
20:45 1024 30.24 853 25.19 21.2 70.1 40 7.4 45.2
20:50 1024 30.24 853 25.19 20.9 69.6 42 7.5 45.5
20:55 1024 30.24 854 25.22 20.5 69 42 7.3 45.1
21:00 1024 30.24 854 25.22 20.5 68.9 41 7.1 44.7
21:05 1025 30.27 854 25.22 20.5 68.9 42 7.3 45.2
21:10 1025 30.27 854 25.22 20.2 68.4 43 7.2 45
21:15 1025 30.27 854 25.22 19.9 67.8 43 7 44.6
21:20 1025 30.27 854 25.22 19.9 67.9 42 6.8 44.2
21:25 1025 30.27 854 25.22 20 68 42 6.7 44.1
21:30 1025 30.27 854 25.22 19.9 67.9 42 6.9 44.4
21:35 1025 30.27 854 25.22 19.6 67.3 45 7.4 45.3
21:40 1025 30.27 854 25.22 19.1 66.4 45 7.1 44.8
21:45 1025 30.27 854 25.22 18.8 65.9 49 8 46.4
21:50 1025 30.27 854 25.22 17.8 64 52 8 46.5
21:55 1025 30.27 854 25.22 17.3 63.1 54 7.9 46.2
22:00 1025 30.27 854 25.22 17.4 63.3 52 7.4 45.4
22:05 1025 30.27 854 25.22 17.6 63.7 50 7.2 44.9
22:10 1025 30.27 855 25.25 17.9 64.1 48 6.9 44.3
22:15 1025 30.27 855 25.25 18.1 64.5 48 7.1 44.8
22:20 1025 30.27 855 25.25 18 64.4 49 7.2 45
22:25 1025 30.27 855 25.25 17.8 64.1 50 7.3 45.2
22:30 1025 30.27 855 25.25 17.7 63.8 49 7 44.7
22:35 1026 30.3 855 25.25 17.8 64 50 7.2 45
22:40 1026 30.3 855 25.25 17.6 63.7 50 7.1 44.8
22:45 1026 30.3 855 25.25 17.5 63.5 50 7.1 44.7
22:50 1026 30.3 855 25.25 17.8 64.1 48 6.7 44
22:55 1026 30.3 855 25.25 17.9 64.2 47 6.7 44.1
23:00 1026 30.3 855 25.25 17.8 64.1 49 7 44.6
23:05 1026 30.3 855 25.25 17.3 63.2 51 7.1 44.8
23:10 1026 30.3 855 25.25 16.9 62.3 53 7.2 45
23:15 1026 30.3 855 25.25 16.7 62 53 7.1 44.7
23:20 1026 30.3 855 25.25 16.6 61.8 51 6.6 44
23:25 1026 30.3 855 25.25 16.8 62.2 51 6.7 44.1
23:30 1026 30.3 855 25.25 16.7 62.1 51 6.7 44.1
23:35 1026 30.3 855 25.25 16.5 61.6 54 7.3 45.1
23:40 1026 30.3 855 25.25 15.9 60.6 55 7 44.5
23:45 1026 30.3 855 25.25 15.8 60.4 55 6.8 44.2
23:50 1026 30.3 855 25.25 16 60.8 51 6 42.8
23:55 1026 30.3 855 25.25 16.4 61.6 51 6.3 43.3
24:00 1026 30.3 855 25.25 16.6 61.8 49 5.9 42.7